This demonstration page uses our WeatherBlox Daily Observations layout. Learn more.

39.92423, -83.80882

Hourly Observations for September 8, 2018

Temp ( °F °C ) Dew Point ( °F °C ) Humidity (%) Winds ( mph kmh ) Pressure ( in mb ) Visibility ( mi km ) Precip ( " mm )
12:56 am 00:56 Cloudy with Light Rain 66 18.9 66 18.9 100 100 NE 14 22 30.11 1020 10 16.0934 0.01 0.254
1:56 am 01:56 Cloudy 65 18.3 65 18.3 100 100 NE 10 17 30.1 1019 10 16.0934 0 0
2:56 am 02:56 Cloudy 66 18.9 66 18.9 100 100 NE 13 20 30.08 1019 10 16.0934 0 0
3:56 am 03:56 Cloudy with Light Rain 66 18.9 66 18.9 100 100 ENE 12 19 30.06 1018 9 14.48406 0 0.0254
4:37 am 04:37 Cloudy with Light Rain 66 19 66 19 100 100 NE 9 15 30.06 1018 10 16.0934 0.03 0.762
4:53 am 04:53 Cloudy with Rain 66 19 66 19 100 100 NE 12 19 30.06 1018 10 16.0934 0.05 1.27
4:56 am 04:56 Cloudy with Rain 66 18.9 66 18.9 100 100 NE 12 19 30.06 1018 10 16.0934 0.05 1.27
5:07 am 05:07 Cloudy with Rain 66 19 66 19 100 100 NNE 8 13 30.06 1018 9 14.48406 0.04 1.016
5:23 am 05:23 Cloudy with Heavy Rain 64 18 64 18 100 100 N 12 19 30.09 1019 5 8.0467 0.16 4.064
5:43 am 05:43 Cloudy with Rain 64 18 64 18 100 100 NE 13 20 30.03 1017 8 12.87472 0.26 6.604
5:56 am 05:56 Cloudy with Rain 65 18.3 65 18.3 100 100 NE 13 20 30.05 1018 8 12.87472 0.3 7.62
6:14 am 06:14 Cloudy with Rain 64 18 64 18 100 100 NE 12 19 30.03 1017 9 14.48406 0.07 1.778
6:32 am 06:32 Cloudy with Heavy Rain 64 18 64 18 100 100 NE 14 22 30.03 1017 5 8.0467 0.18 4.572
6:54 am 06:54 Cloudy with Rain 64 18 64 18 100 100 NE 10 17 30.03 1017 8 12.87472 0.29 7.366
6:56 am 06:56 Cloudy with Rain 64 17.8 64 17.8 100 100 ENE 9 15 30.06 1018 8 12.87472 0.3 7.62
7:04 am 07:04 Cloudy with Rain 64 18 64 18 100 100 ENE 9 15 30.03 1017 7 11.26538 0.03 0.762
7:30 am 07:30 Cloudy with Heavy Rain 64 18 64 18 100 100 ENE 13 20 30.09 1019 6 9.65604 0.11 2.794
7:46 am 07:46 Cloudy with Heavy Rain 64 18 64 18 100 100 ENE 16 26 30.03 1017 4 6.43736 0.19 4.826
7:56 am 07:56 Cloudy with Rain 64 17.8 64 17.8 100 100 ENE 16 26 30.07 1018 8 12.87472 0.21 5.334
8:33 am 08:33 Cloudy with Rain 64 18 63 17 94 94 ENE 16 26 30.09 1019 6 9.65604 0.1 2.54
8:56 am 08:56 Cloudy with Light Rain 64 17.8 64 17.8 100 100 ENE 12 19 30.08 1019 10 16.0934 0.12 3.048
9:36 am 09:36 Cloudy with Light Rain 64 18 64 18 100 100 ENE 13 20 30.09 1019 10 16.0934 0 0.0254
9:56 am 09:56 Cloudy with Light Rain 64 17.8 63 17.2 96 96 ENE 13 20 30.08 1019 10 16.0934 0.01 0.254
10:56 am 10:56 Cloudy with Rain 63 17.2 62 16.7 97 97 ENE 17 28 30.1 1019 5 8.0467 0.04 1.016
11:56 am 11:56 Cloudy with Rain 64 17.8 64 17.8 100 100 ENE 15 24 30.09 1019 8 12.87472 0.14 3.556
12:03 pm 12:03 Cloudy with Light Rain 64 18 64 18 100 100 ENE 15 24 30.09 1019 7 11.26538 0.01 0.254
12:20 pm 12:20 Cloudy with Rain 64 18 64 18 100 100 ENE 15 24 30.09 1019 9 14.48406 0.03 0.762
12:56 pm 12:56 Cloudy with Rain 64 17.8 63 17.2 96 96 ENE 12 19 30.09 1019 9 14.48406 0.07 1.778
1:14 pm 13:14 Cloudy with Light Rain 64 18 63 17 94 94 E 13 20 30.09 1019 7 11.26538 0.03 0.762
1:39 pm 13:39 Cloudy with Light Rain 64 18 63 17 94 94 ENE 20 31 30.09 1019 10 16.0934 0.05 1.27
1:56 pm 13:56 Cloudy with Light Rain 64 17.8 63 17.2 96 96 ENE 18 30 30.07 1018 10 16.0934 0.06 1.524
2:19 pm 14:19 Cloudy with Light Rain 64 18 63 17 94 94 ENE 20 31 30.03 1017 10 16.0934 0.01 0.254
2:33 pm 14:33 Cloudy with Light Rain 63 17 63 17 100 100 ENE 17 28 30.06 1018 10 16.0934 0.01 0.254
2:56 pm 14:56 Cloudy with Light Rain 64 17.8 63 17.2 96 96 ENE 17 28 30.05 1018 10 16.0934 0.02 0.508
3:11 pm 15:11 Cloudy with Light Rain 64 18 63 17 94 94 ENE 18 30 30.03 1017 10 16.0934 0.02 0.508
3:47 pm 15:47 Cloudy with Light Rain 63 17 63 17 100 100 ENE 14 22 30.06 1018 10 16.0934 0.03 0.762
3:56 pm 15:56 Cloudy with Light Rain 63 17.2 63 17.2 100 100 ENE 15 24 30.04 1017 10 16.0934 0.03 0.762
4:03 pm 16:03 Cloudy with Light Rain 64 18 63 17 94 94 ENE 14 22 30 1016 10 16.0934 0.01 0.254
4:10 pm 16:10 Cloudy with Light Rain 63 17 63 17 100 100 ENE 9 15 30.06 1018 10 16.0934 0.01 0.254
4:56 pm 16:56 Cloudy with Light Rain 63 17.2 62 16.7 97 97 NE 15 24 30.03 1017 8 12.87472 0.05 1.27
5:03 pm 17:03 Cloudy with Light Rain 63 17 63 17 100 100 NE 15 24 30.03 1017 9 14.48406 0 0.0254
5:12 pm 17:12 Cloudy with Light Rain 63 17 63 17 100 100 ENE 13 20 30.03 1017 8 12.87472 0.01 0.254
5:56 pm 17:56 Cloudy with Light Rain 62 16.7 62 16.7 100 100 NE 14 22 30.03 1017 8 12.87472 0.08 2.032
6:56 pm 18:56 Cloudy with Light Rain 61 16.1 61 16.1 100 100 ENE 13 20 30.03 1017 10 16.0934 0.08 2.032
7:56 pm 19:56 Cloudy with Light Rain 61 16.1 61 16.1 100 100 ENE 17 28 30.01 1016 10 16.0934 0.04 1.016
8:23 pm 20:23 Cloudy with Light Rain 61 16 61 16 100 100 ENE 21 33 30 1016 10 16.0934 0.02 0.508
8:56 pm 20:56 Cloudy with Rain 60 15.6 60 15.6 100 100 ENE 17 28 29.99 1016 10 16.0934 0.06 1.524
9:14 pm 21:14 Cloudy with Rain 61 16 61 16 100 100 ENE 14 22 30 1016 10 16.0934 0.02 0.508
9:56 pm 21:56 Cloudy with Light Rain 60 15.6 60 15.6 100 100 ENE 17 28 30 1016 10 16.0934 0.04 1.016
10:56 pm 22:56 Cloudy with Light Rain 60 15.6 59 15 96 96 E 18 30 29.99 1016 10 16.0934 0.05 1.27
11:56 pm 23:56 Cloudy with Light Rain 59 15 59 15 100 100 E 20 31 29.95 1014 9 14.48406 0.1 2.54

Powered by AerisWeather